M I D A S
Marine Information and Data Acquisition System
Tripno 1231 of the Zeeleeuw from 2007-03-14 09:39:51 to 2007-03-14 15:19:52
Back to CruiseResearch ActivitiesStationsMapUnderway DataData graphs

EquipmentUnitsComments
TimeDGPSUTC
LatitudeDGPSDM.mWGS84
LongitudeDGPSDM.mWGS84
SpeedMeteo Stationm/sRelative wind speed
DirectionMeteo StationdegRelative wind direction
TemperatureMeteo Stationdeg CelciusAir temperature
PressureMeteo StationPaAtmospheric pressure
HumidityMeteo Station%Relative humidity
Missing or incorrect values are displayed as -999
Metereological data collected by the RV Zeeleeuw from 2007-03-14 07:26:35 to 2007-03-14 15:30:33
Time Latitude Longitude Speed Direction Temperature Pressure Humidity
2007-03-14 07:27 51°13.597 2°56.094 1.6 29 3 103540 100
2007-03-14 07:28 51°13.597 2°56.094 1 33 3.1 103540 100
2007-03-14 07:29 51°13.598 2°56.094 0.7 29 3.1 103540 100
2007-03-14 07:30 51°13.598 2°56.094 1 17 3.1 103540 100
2007-03-14 07:31 51°13.598 2°56.094 1.1 8 3.2 103540 100
2007-03-14 07:32 51°13.599 2°56.094 0.9 21 3.2 103540 100
2007-03-14 07:33 51°13.598 2°56.094 1.7 25 3.2 103540 100
2007-03-14 07:34 51°13.598 2°56.094 1.1 31 3.2 103540 100
2007-03-14 07:35 51°13.598 2°56.094 1.7 17 3.2 103540 100
2007-03-14 07:36 51°13.597 2°56.094 1 18 3.3 103540 100
2007-03-14 07:37 51°13.598 2°56.095 1.4 19 3.4 103540 100
2007-03-14 07:38 51°13.599 2°56.094 1.4 12 3.5 103550 100
2007-03-14 07:39 51°13.599 2°56.095 1.3 17 3.5 103550 100
2007-03-14 07:40 51°13.599 2°56.095 1.2 23 3.5 103550 100
2007-03-14 07:41 51°13.598 2°56.095 1.3 19 3.6 103550 100
2007-03-14 07:42 51°13.598 2°56.094 1.3 19 3.6 103550 100
2007-03-14 07:43 51°13.598 2°56.095 1.1 23 3.6 103550 100
2007-03-14 07:44 51°13.598 2°56.095 0.9 17 3.7 103550 100
2007-03-14 07:45 51°13.598 2°56.095 1.1 354 3.7 103550 100
2007-03-14 07:46 51°13.598 2°56.096 1.1 7 3.8 103550 100
2007-03-14 07:47 51°13.598 2°56.095 1 25 3.9 103550 100
2007-03-14 07:48 51°13.598 2°56.094 0.6 14 4 103550 100
2007-03-14 07:49 51°13.599 2°56.095 0.8 16 4.1 103550 100
2007-03-14 07:50 51°13.599 2°56.094 0.7 359 4.1 103550 100
2007-03-14 07:51 51°13.599 2°56.094 0.4 20 4.2 103550 100
2007-03-14 07:52 51°13.599 2°56.094 0.7 -999 4.3 103550 100
2007-03-14 07:53 51°13.599 2°56.094 0.4 358 4.4 103550 100
2007-03-14 07:54 51°13.598 2°56.094 0.3 348 4.5 103550 100
2007-03-14 07:55 51°13.599 2°56.094 0.6 352 4.5 103550 100
2007-03-14 07:56 51°13.599 2°56.094 1.1 347 4.6 103550 100
2007-03-14 07:57 51°13.599 2°56.094 0.9 347 4.6 103550 100
2007-03-14 07:58 51°13.599 2°56.093 0.8 348 4.6 103550 100
2007-03-14 07:59 51°13.598 2°56.093 0.7 351 4.7 103550 100
2007-03-14 08:00 51°13.599 2°56.094 1.2 8 4.8 103550 100
2007-03-14 08:01 51°13.599 2°56.094 1.1 354 4.9 103550 100
2007-03-14 08:02 51°13.598 2°56.094 0.4 351 5 103550 100
2007-03-14 08:03 51°13.598 2°56.095 1.2 357 5 103550 100
2007-03-14 08:04 51°13.599 2°56.095 0.4 6 5 103560 100
2007-03-14 08:05 51°13.599 2°56.095 0.8 1 5.1 103560 100
2007-03-14 08:06 51°13.597 2°56.094 0.6 29 5.1 103560 100
2007-03-14 08:07 51°13.597 2°56.094 0.7 351 5.1 103560 100
2007-03-14 08:08 51°13.597 2°56.094 0.5 26 5.1 103560 100
2007-03-14 08:09 51°13.597 2°56.093 0.2 8 5.2 103560 100
2007-03-14 08:10 51°13.597 2°56.093 1.4 18 5.2 103560 100
2007-03-14 08:11 51°13.597 2°56.093 1.1 9 5.3 103570 100
2007-03-14 08:12 51°13.598 2°56.094 1 20 5.3 103560 100
2007-03-14 08:13 51°13.598 2°56.094 0.8 32 5.3 103570 100
2007-03-14 08:14 51°13.597 2°56.093 0.6 25 5.3 103560 100
2007-03-14 08:15 51°13.598 2°56.094 0.8 19 5.4 103560 100
2007-03-14 08:16 51°13.599 2°56.093 0.6 16 5.5 103570 100
2007-03-14 08:17 51°13.598 2°56.094 0.5 14 5.5 103570 100
2007-03-14 08:18 51°13.598 2°56.094 1.1 15 5.6 103560 100
2007-03-14 08:19 51°13.597 2°56.094 0.5 25 5.7 103570 100
2007-03-14 08:20 51°13.597 2°56.093 0.9 18 5.8 103560 100
2007-03-14 08:21 51°13.597 2°56.093 0.8 28 5.9 103570 100
2007-03-14 08:22 51°13.598 2°56.093 1 25 6 103570 100
2007-03-14 08:23 51°13.599 2°56.093 1.2 38 6.1 103570 100
2007-03-14 08:24 51°13.599 2°56.094 0.7 27 6.2 103570 100
2007-03-14 08:25 51°13.6 2°56.094 1 18 6.2 103570 100
2007-03-14 08:26 51°13.6 2°56.094 0.8 31 6.3 103570 100
2007-03-14 08:27 51°13.599 2°56.094 0.9 25 6.3 103580 100
2007-03-14 08:28 51°13.599 2°56.095 1.1 29 6.4 103580 100
2007-03-14 08:29 51°13.598 2°56.094 1.2 24 6.5 103580 100
2007-03-14 08:30 51°13.598 2°56.094 1.5 37 6.6 103580 100
2007-03-14 08:31 51°13.599 2°56.094 1 21 6.6 103570 100
2007-03-14 08:32 51°13.599 2°56.094 1.3 23 6.7 103580 100
2007-03-14 08:33 51°13.599 2°56.094 1.1 16 6.8 103570 100
2007-03-14 08:34 51°13.599 2°56.094 1.1 22 6.8 103570 100
2007-03-14 08:35 51°13.598 2°56.094 0.8 25 6.9 103570 100
2007-03-14 08:36 51°13.599 2°56.094 1.1 14 7 103580 100
2007-03-14 08:37 51°13.599 2°56.094 1 29 7.1 103580 100
2007-03-14 08:38 51°13.599 2°56.094 0.9 5 7.1 103580 99
2007-03-14 08:39 51°13.599 2°56.095 0.7 7 7.2 103580 99
2007-03-14 08:40 51°13.599 2°56.095 0.9 22 7.4 103580 99
2007-03-14 08:41 51°13.599 2°56.094 0.9 21 7.5 103580 98
2007-03-14 08:42 51°13.599 2°56.094 1.5 16 7.6 103580 98
2007-03-14 08:43 51°13.598 2°56.094 1 23 7.7 103580 97
2007-03-14 08:44 51°13.598 2°56.094 1.2 26 7.7 103580 96
2007-03-14 08:45 51°13.598 2°56.094 1 22 7.8 103590 96
2007-03-14 08:46 51°13.598 2°56.094 0.7 26 7.9 103590 95
2007-03-14 08:47 51°13.598 2°56.094 0.5 31 8 103590 95
2007-03-14 08:48 51°13.599 2°56.094 0.5 12 8.1 103590 94
2007-03-14 08:49 51°13.598 2°56.093 1.2 19 8.2 103580 94
2007-03-14 08:50 51°13.598 2°56.094 1.8 24 8.4 103590 92
2007-03-14 08:51 51°13.597 2°56.094 1.3 24 8.4 103590 91
2007-03-14 08:52 51°13.597 2°56.094 1 28 8.5 103590 90
2007-03-14 08:53 51°13.597 2°56.094 1.1 35 8.5 103590 89
2007-03-14 08:54 51°13.598 2°56.094 0.7 17 8.6 103590 89
2007-03-14 08:55 51°13.598 2°56.095 0.8 26 8.6 103600 88
2007-03-14 08:56 51°13.599 2°56.095 0.7 12 8.7 103600 88
2007-03-14 08:57 51°13.6 2°56.095 1.2 24 8.8 103590 87
2007-03-14 08:58 51°13.599 2°56.095 1.4 14 8.9 103600 87
2007-03-14 08:59 51°13.599 2°56.095 1.7 19 8.9 103600 86
2007-03-14 09:00 51°13.599 2°56.095 1 28 9 103600 85
2007-03-14 09:01 51°13.599 2°56.096 1.1 16 9.1 103590 85
2007-03-14 09:02 51°13.599 2°56.096 1.4 18 9.1 103600 84
2007-03-14 09:03 51°13.599 2°56.095 1.4 16 9.2 103590 83
2007-03-14 09:04 51°13.599 2°56.095 1.6 18 9.2 103590 83
2007-03-14 09:05 51°13.598 2°56.094 1.7 17 9.2 103590 82
2007-03-14 09:06 51°13.599 2°56.094 2.1 20 9.2 103600 82
2007-03-14 09:07 51°13.599 2°56.094 1.3 10 9.3 103600 82
2007-03-14 09:08 51°13.598 2°56.094 0.7 20 9.3 103600 82
2007-03-14 09:09 51°13.597 2°56.094 1 17 9.4 103600 82
2007-03-14 09:10 51°13.599 2°56.095 0.8 41 9.5 103600 82
2007-03-14 09:11 51°13.6 2°56.094 0.9 32 9.6 103600 82
2007-03-14 09:12 51°13.597 2°56.094 0.5 37 9.6 103600 82
2007-03-14 09:13 51°13.597 2°56.094 1.5 17 9.7 103600 82
2007-03-14 09:14 51°13.597 2°56.095 1.5 31 9.7 103610 81
2007-03-14 09:15 51°13.597 2°56.096 1.3 35 9.8 103610 81
2007-03-14 09:16 51°13.597 2°56.095 1.3 27 9.8 103610 81
2007-03-14 09:17 51°13.598 2°56.094 1.1 19 9.8 103600 81
2007-03-14 09:18 51°13.598 2°56.094 1.2 30 9.9 103610 81
2007-03-14 09:19 51°13.598 2°56.094 0.7 16 10 103610 81
2007-03-14 09:20 51°13.598 2°56.094 1.2 18 10 103610 81
2007-03-14 09:21 51°13.598 2°56.094 0.9 11 10.1 103610 80
2007-03-14 09:22 51°13.598 2°56.095 1 31 10.2 103610 80
2007-03-14 09:23 51°13.598 2°56.095 1.3 41 10.3 103610 80
2007-03-14 09:24 51°13.598 2°56.094 1.2 22 10.3 103610 79
2007-03-14 09:25 51°13.598 2°56.095 1.8 23 10.3 103610 78
2007-03-14 09:26 51°13.599 2°56.096 1 24 10.3 103610 78
2007-03-14 09:27 51°13.595 2°56.095 0.9 21 10.2 103610 78
2007-03-14 09:28 51°13.595 2°56.096 0.7 40 10.2 103620 77
2007-03-14 09:29 51°13.598 2°56.1 0.8 15 10.3 103610 77
2007-03-14 09:30 51°13.597 2°56.088 1 37 10.4 103610 77
2007-03-14 09:31 51°13.618 2°56.023 1.8 30 10.4 103610 77
2007-03-14 09:32 51°13.653 2°55.916 2.1 32 10.3 103610 76
2007-03-14 09:33 51°13.687 2°55.827 1.9 34 10.2 103610 77
2007-03-14 09:34 51°13.704 2°55.754 1.8 39 10.2 103610 77
2007-03-14 09:35 51°13.71 2°55.739 1.6 38 10.3 103610 75
2007-03-14 09:36 51°13.714 2°55.736 1.6 22 10.3 103610 75
2007-03-14 09:37 51°13.707 2°55.721 1.6 254 10.4 103620 75
2007-03-14 09:38 51°13.736 2°55.703 2.2 327 10.5 103620 74
2007-03-14 09:39 51°13.815 2°55.649 5.1 326 10.5 103620 73
2007-03-14 09:40 51°13.928 2°55.58 4 330 10.3 103620 71
2007-03-14 09:41 51°14.046 2°55.506 4.6 320 10.3 103610 73
2007-03-14 09:42 51°14.161 2°55.424 4.5 320 10.2 103610 74
2007-03-14 09:43 51°14.273 2°55.287 6.5 321 10.2 103610 76
2007-03-14 09:44 51°14.37 2°55.051 7.6 322 10 103610 78
2007-03-14 09:45 51°14.474 2°54.779 8 324 9.8 103610 81
2007-03-14 09:46 51°14.565 2°54.487 7.9 324 9.7 103610 82
2007-03-14 09:47 51°14.658 2°54.176 7.9 322 9.6 103610 84
2007-03-14 09:48 51°14.765 2°53.865 7.6 321 9.5 103610 85
2007-03-14 09:49 51°14.787 2°53.523 8.6 324 9.5 103600 86
2007-03-14 09:50 51°14.775 2°53.17 8.7 324 9.4 103600 86
2007-03-14 09:51 51°14.777 2°52.818 8.5 324 9.4 103610 87
2007-03-14 09:52 51°14.781 2°52.466 9 324 9.3 103610 87
2007-03-14 09:53 51°14.777 2°52.116 8.6 323 9.3 103600 88
2007-03-14 09:54 51°14.767 2°51.764 8.7 323 9.3 103600 88
2007-03-14 09:55 51°14.759 2°51.412 9 322 9.3 103600 89
2007-03-14 09:56 51°14.751 2°51.061 8.9 323 9.3 103600 89
2007-03-14 09:57 51°14.761 2°50.712 8.6 323 9.3 103600 89
2007-03-14 09:58 51°14.775 2°50.365 8.6 322 9.3 103610 89
2007-03-14 09:59 51°14.788 2°50.019 8.9 322 9.3 103600 89
2007-03-14 10:00 51°14.801 2°49.675 9 320 9.3 103610 89
2007-03-14 10:01 51°14.816 2°49.329 9.1 320 9.3 103600 89
2007-03-14 10:02 51°14.828 2°48.981 8.5 321 9.3 103600 89
2007-03-14 10:03 51°14.84 2°48.63 9 321 9.3 103600 90
2007-03-14 10:04 51°14.851 2°48.279 8.8 322 9.3 103600 90
2007-03-14 10:05 51°14.865 2°47.93 9 322 9.3 103600 90
2007-03-14 10:06 51°14.876 2°47.583 8.8 321 9.3 103600 90
2007-03-14 10:07 51°14.897 2°47.24 8.5 321 9.3 103600 91
2007-03-14 10:08 51°14.918 2°46.894 8.6 321 9.4 103600 91
2007-03-14 10:09 51°14.94 2°46.545 8.6 322 9.4 103600 91
2007-03-14 10:10 51°14.963 2°46.189 9 323 9.4 103600 92
2007-03-14 10:11 51°14.987 2°45.834 8.8 321 9.4 103600 92
2007-03-14 10:12 51°15.009 2°45.484 9 322 9.4 103600 92
2007-03-14 10:13 51°15.032 2°45.135 8.8 321 9.4 103600 92
2007-03-14 10:14 51°15.055 2°44.788 8.9 323 9.5 103600 93
2007-03-14 10:15 51°15.077 2°44.442 8.9 322 9.5 103600 93
2007-03-14 10:16 51°15.099 2°44.094 8.6 322 9.5 103610 93
2007-03-14 10:17 51°15.123 2°43.746 8.6 322 9.5 103600 93
2007-03-14 10:18 51°15.146 2°43.399 8.7 324 9.5 103610 93
2007-03-14 10:19 51°15.17 2°43.051 8.8 324 9.5 103600 94
2007-03-14 10:20 51°15.194 2°42.701 8.8 322 9.6 103610 94
2007-03-14 10:21 51°15.224 2°42.353 8.3 322 9.6 103610 94
2007-03-14 10:22 51°15.303 2°42.023 7.8 324 9.6 103610 94
2007-03-14 10:23 51°15.413 2°41.702 7.7 325 9.6 103610 94
2007-03-14 10:24 51°15.543 2°41.412 7.2 324 9.7 103610 94
2007-03-14 10:25 51°15.73 2°41.199 7.1 325 9.7 103610 94
2007-03-14 10:26 51°15.935 2°41.014 6.8 326 9.7 103610 94
2007-03-14 10:27 51°16.139 2°40.851 7 326 9.8 103610 94
2007-03-14 10:28 51°16.342 2°40.681 7.4 325 9.8 103610 93
2007-03-14 10:29 51°16.545 2°40.509 7.5 326 9.8 103600 93
2007-03-14 10:30 51°16.75 2°40.33 7 325 9.8 103610 92
2007-03-14 10:31 51°16.948 2°40.156 7.1 324 9.8 103610 92
2007-03-14 10:32 51°17.15 2°39.975 7 325 9.9 103610 92
2007-03-14 10:33 51°17.352 2°39.79 7.2 325 9.9 103610 92
2007-03-14 10:34 51°17.554 2°39.633 7.3 325 9.9 103610 91
2007-03-14 10:35 51°17.772 2°39.505 7.1 327 9.9 103610 92
2007-03-14 10:36 51°17.981 2°39.352 7.3 327 9.9 103610 91
2007-03-14 10:37 51°18.191 2°39.2 7.3 327 9.8 103600 91
2007-03-14 10:38 51°18.4 2°39.05 7.6 326 9.9 103600 91
2007-03-14 10:39 51°18.61 2°38.898 7.7 326 9.8 103600 90
2007-03-14 10:40 51°18.821 2°38.747 7.7 326 9.8 103600 90
2007-03-14 10:41 51°19.035 2°38.591 8.1 326 9.9 103600 90
2007-03-14 10:42 51°19.239 2°38.436 8.2 325 9.9 103600 90
2007-03-14 10:43 51°19.445 2°38.274 8.3 325 9.9 103600 90
2007-03-14 10:44 51°19.637 2°38.066 8.4 326 9.9 103600 90
2007-03-14 10:45 51°19.809 2°37.835 8.4 327 9.9 103600 91
2007-03-14 10:46 51°19.979 2°37.594 8.3 327 9.8 103600 90
2007-03-14 10:47 51°20.13 2°37.386 6 327 9.8 103610 91
2007-03-14 10:48 51°20.162 2°37.237 4.3 334 9.8 103610 90
2007-03-14 10:49 51°20.146 2°37.118 3.3 340 9.8 103610 90
2007-03-14 10:50 51°20.123 2°37.06 2.5 351 9.8 103620 90
2007-03-14 10:51 51°20.1 2°37.027 2.2 354 9.7 103610 90
2007-03-14 10:52 51°20.079 2°37.005 1.9 359 9.7 103610 90
2007-03-14 10:53 51°20.064 2°36.988 2.1 -999 9.6 103620 91
2007-03-14 10:54 51°20.05 2°36.975 2.1 3 9.6 103620 91
2007-03-14 10:55 51°20.038 2°36.962 2 -999 9.6 103620 91
2007-03-14 10:56 51°20.028 2°36.951 1.9 358 9.5 103620 91
2007-03-14 10:57 51°20.02 2°36.94 2 358 9.5 103620 91
2007-03-14 10:58 51°20.013 2°36.93 2 357 9.6 103620 92
2007-03-14 10:59 51°20.008 2°36.922 2 357 9.5 103620 92
2007-03-14 11:00 51°20.004 2°36.915 2.1 358 9.6 103620 92
2007-03-14 11:01 51°20 2°36.908 2.1 359 9.6 103620 92
2007-03-14 11:02 51°19.997 2°36.903 2.1 359 9.5 103620 92
2007-03-14 11:03 51°19.994 2°36.899 1.8 358 9.6 103620 92
2007-03-14 11:04 51°19.992 2°36.896 1.9 356 9.5 103620 92
2007-03-14 11:05 51°19.99 2°36.894 1.8 359 9.6 103620 92
2007-03-14 11:06 51°19.988 2°36.892 2 357 9.6 103620 92
2007-03-14 11:07 51°19.986 2°36.891 1.9 3 9.6 103620 92
2007-03-14 11:08 51°19.984 2°36.89 1.9 2 9.6 103620 92
2007-03-14 11:09 51°19.983 2°36.89 1.8 359 9.6 103620 92
2007-03-14 11:10 51°19.982 2°36.89 2 357 9.6 103620 92
2007-03-14 11:11 51°19.981 2°36.89 1.9 358 9.5 103620 92
2007-03-14 11:12 51°19.98 2°36.891 2.1 356 9.5 103620 92
2007-03-14 11:13 51°19.98 2°36.892 2.2 357 9.5 103620 91
2007-03-14 11:14 51°19.979 2°36.894 2.2 358 9.5 103620 92
2007-03-14 11:15 51°19.978 2°36.897 2.1 358 9.5 103620 92
2007-03-14 11:16 51°19.977 2°36.9 2 1 9.5 103620 92
2007-03-14 11:17 51°19.977 2°36.902 1.8 3 9.5 103620 92
2007-03-14 11:18 51°19.976 2°36.906 1.7 2 9.5 103620 92
2007-03-14 11:19 51°19.976 2°36.906 1.8 359 9.5 103630 92
2007-03-14 11:20 51°19.975 2°36.91 2 359 9.5 103620 92
2007-03-14 11:21 51°19.975 2°36.913 2.1 360 9.5 103620 91
2007-03-14 11:22 51°19.974 2°36.918 1.9 359 9.5 103620 91
2007-03-14 11:23 51°19.973 2°36.922 2 5 9.5 103620 91
2007-03-14 11:24 51°19.972 2°36.926 1.3 7 9.5 103620 90
2007-03-14 11:25 51°19.971 2°36.931 2.2 9 9.5 103620 89
2007-03-14 11:26 51°19.97 2°36.935 2 10 9.5 103620 89
2007-03-14 11:27 51°19.969 2°36.939 2 12 9.6 103620 89
2007-03-14 11:28 51°19.968 2°36.944 1.9 11 9.7 103620 89
2007-03-14 11:29 51°19.967 2°36.946 2.2 13 9.7 103620 88
2007-03-14 11:30 51°19.965 2°36.949 2.2 14 9.7 103630 88
2007-03-14 11:31 51°19.964 2°36.952 2.2 12 9.7 103630 88
2007-03-14 11:32 51°19.963 2°36.955 2.1 12 9.7 103630 88
2007-03-14 11:33 51°19.962 2°36.957 1.7 8 9.8 103630 88
2007-03-14 11:34 51°19.961 2°36.961 2.1 10 9.8 103630 88
2007-03-14 11:35 51°19.96 2°36.963 2.2 13 9.8 103630 88
2007-03-14 11:36 51°19.959 2°36.966 2.1 11 9.8 103630 88
2007-03-14 11:37 51°19.957 2°36.968 2.2 13 9.8 103630 88
2007-03-14 11:38 51°19.955 2°36.97 2.3 16 9.8 103630 88
2007-03-14 11:39 51°19.953 2°36.973 2.2 16 9.8 103630 88
2007-03-14 11:40 51°19.951 2°36.975 2.2 10 9.8 103630 87
2007-03-14 11:41 51°19.949 2°36.976 2.2 8 9.8 103630 87
2007-03-14 11:42 51°19.947 2°36.977 1.8 6 9.8 103630 87
2007-03-14 11:43 51°19.944 2°36.978 1.9 2 9.8 103630 87
2007-03-14 11:44 51°19.942 2°36.979 1.9 360 9.8 103630 88
2007-03-14 11:45 51°19.94 2°36.978 1.9 2 9.8 103630 88
2007-03-14 11:46 51°19.938 2°36.977 1.8 3 9.7 103630 88
2007-03-14 11:47 51°19.935 2°36.975 1.8 6 9.7 103630 88
2007-03-14 11:48 51°19.933 2°36.975 2 4 9.7 103630 89
2007-03-14 11:49 51°19.932 2°36.975 2 4 9.7 103630 89
2007-03-14 11:50 51°19.931 2°36.974 1.8 3 9.7 103630 89
2007-03-14 11:51 51°19.929 2°36.974 1.8 360 9.7 103620 89
2007-03-14 11:52 51°19.928 2°36.974 1.6 -999 9.7 103630 89
2007-03-14 11:53 51°19.926 2°36.974 1.6 357 9.7 103630 89
2007-03-14 11:54 51°19.924 2°36.973 1.6 1 9.7 103630 89
2007-03-14 11:55 51°19.922 2°36.973 1.9 5 9.7 103630 89
2007-03-14 11:56 51°19.919 2°36.973 2 7 9.7 103630 89
2007-03-14 11:57 51°19.917 2°36.973 1.9 9 9.7 103630 89
2007-03-14 11:58 51°19.914 2°36.972 1.9 10 9.7 103630 89
2007-03-14 11:59 51°19.911 2°36.971 1.8 11 9.8 103630 89
2007-03-14 12:00 51°19.909 2°36.97 2 8 9.8 103630 89
2007-03-14 12:01 51°19.906 2°36.969 1.8 7 9.8 103630 88
2007-03-14 12:02 51°19.903 2°36.967 1.7 4 9.8 103630 88
2007-03-14 12:03 51°19.899 2°36.967 1.6 8 9.8 103620 88
2007-03-14 12:04 51°19.897 2°36.965 1.8 9 9.8 103620 88
2007-03-14 12:05 51°19.894 2°36.963 2 10 9.8 103620 89
2007-03-14 12:06 51°19.89 2°36.961 1.9 8 9.8 103620 89
2007-03-14 12:07 51°19.887 2°36.959 2 8 9.8 103620 89
2007-03-14 12:08 51°19.884 2°36.957 1.8 3 9.8 103620 89
2007-03-14 12:09 51°19.881 2°36.954 1.7 6 9.8 103620 89
2007-03-14 12:10 51°19.872 2°36.947 2.3 354 9.8 103620 88
2007-03-14 12:11 51°19.847 2°36.916 2.5 355 9.7 103610 89
2007-03-14 12:12 51°19.827 2°36.89 2.3 355 9.7 103620 89
2007-03-14 12:13 51°19.811 2°36.868 2.1 355 9.7 103620 90
2007-03-14 12:14 51°19.798 2°36.849 2 358 9.7 103610 90
2007-03-14 12:15 51°19.788 2°36.834 2.1 356 9.7 103620 90
2007-03-14 12:16 51°19.779 2°36.822 2.4 356 9.7 103620 90
2007-03-14 12:17 51°19.77 2°36.81 2.3 357 9.7 103610 90
2007-03-14 12:18 51°19.763 2°36.799 2.1 355 9.7 103610 90
2007-03-14 12:19 51°19.749 2°36.781 2.3 358 9.7 103610 90
2007-03-14 12:20 51°19.709 2°36.786 1.5 23 9.7 103610 90
2007-03-14 12:21 51°19.698 2°36.866 1.4 33 9.8 103620 90
2007-03-14 12:22 51°19.755 2°36.909 3.2 36 9.9 103610 91
2007-03-14 12:23 51°19.837 2°36.896 3.3 34 10 103600 90
2007-03-14 12:24 51°19.911 2°36.88 3.2 39 10.1 103600 89
2007-03-14 12:25 51°19.973 2°36.866 2.8 37 10.1 103610 88
2007-03-14 12:26 51°20.019 2°36.85 2.5 33 10.2 103600 88
2007-03-14 12:27 51°20.054 2°36.831 2.1 32 10.3 103600 88
2007-03-14 12:28 51°20.081 2°36.822 2.3 241 10.3 103600 88
2007-03-14 12:29 51°20.102 2°36.809 2.7 262 10.5 103610 88
2007-03-14 12:30 51°20.118 2°36.783 3.1 33 10.7 103600 87
2007-03-14 12:31 51°20.127 2°36.748 2 9 10.7 103590 86
2007-03-14 12:32 51°20.128 2°36.713 2.2 329 10.8 103590 85
2007-03-14 12:33 51°20.126 2°36.685 2 331 10.7 103590 85
2007-03-14 12:34 51°20.123 2°36.661 2 340 10.8 103600 85
2007-03-14 12:35 51°20.116 2°36.643 1.8 345 10.7 103590 84
2007-03-14 12:36 51°20.11 2°36.63 1.9 352 10.6 103590 84
2007-03-14 12:37 51°20.103 2°36.618 1.8 360 10.4 103590 84
2007-03-14 12:38 51°20.097 2°36.609 1.9 1 10.2 103590 85
2007-03-14 12:39 51°20.09 2°36.603 2 7 10.1 103590 85
2007-03-14 12:40 51°20.084 2°36.596 2.3 353 10 103580 86
2007-03-14 12:41 51°20.077 2°36.591 2.2 26 10.1 103590 87
2007-03-14 12:42 51°20.072 2°36.588 1.8 41 10.3 103580 87
2007-03-14 12:43 51°20.067 2°36.586 1.3 44 10.3 103580 85
2007-03-14 12:44 51°20.063 2°36.582 1.7 33 10.4 103580 86
2007-03-14 12:45 51°20.059 2°36.578 1.6 40 10.3 103580 85
2007-03-14 12:46 51°20.055 2°36.573 1.6 39 10.2 103580 85
2007-03-14 12:47 51°20.051 2°36.568 1.5 31 10.2 103580 85
2007-03-14 12:48 51°20.047 2°36.563 1.1 38 10.1 103580 86
2007-03-14 12:49 51°20.043 2°36.556 1.1 35 10.1 103580 85
2007-03-14 12:50 51°20.04 2°36.55 0.9 38 10.3 103580 87
2007-03-14 12:51 51°20.035 2°36.543 1.1 38 10.5 103580 87
2007-03-14 12:52 51°20.026 2°36.627 2.1 337 10.6 103570 86
2007-03-14 12:53 51°19.997 2°36.865 3.2 341 10.6 103570 84
2007-03-14 12:54 51°19.908 2°36.993 1.9 351 10.5 103570 84
2007-03-14 12:55 51°19.9 2°37.098 1.2 21 10.4 103570 84
2007-03-14 12:56 51°19.946 2°37.129 2.5 28 10.5 103570 85
2007-03-14 12:57 51°19.983 2°37.09 2.7 316 10.6 103570 85
2007-03-14 12:58 51°20.017 2°37.052 2.6 36 10.7 103560 84
2007-03-14 12:59 51°20.046 2°37.002 2.8 321 10.7 103570 83
2007-03-14 13:00 51°20.067 2°36.944 2.8 320 10.6 103560 83
2007-03-14 13:01 51°20.087 2°36.887 2.8 316 10.7 103570 83
2007-03-14 13:02 51°20.1 2°36.853 2.2 19 10.7 103560 83
2007-03-14 13:03 51°20.108 2°36.829 2.3 32 10.7 103560 82
2007-03-14 13:04 51°20.113 2°36.808 2.1 35 10.7 103570 82
2007-03-14 13:05 51°20.117 2°36.791 2.1 27 10.7 103560 82
2007-03-14 13:06 51°20.118 2°36.776 1.9 318 10.8 103560 82
2007-03-14 13:07 51°20.117 2°36.767 1.9 317 10.8 103560 82
2007-03-14 13:08 51°20.108 2°36.771 1.5 20 10.9 103560 82
2007-03-14 13:09 51°20.096 2°36.778 1.7 22 10.9 103560 82
2007-03-14 13:10 51°20.085 2°36.782 1.8 21 11 103560 82
2007-03-14 13:11 51°20.074 2°36.785 1.7 239 11.1 103560 82
2007-03-14 13:12 51°20.064 2°36.784 1.8 22 11.2 103560 81
2007-03-14 13:13 51°20.063 2°36.773 1.6 27 11.3 103550 81
2007-03-14 13:14 51°20.061 2°36.764 1.7 23 11.3 103560 80
2007-03-14 13:15 51°20.058 2°36.756 1.5 28 11.3 103560 80
2007-03-14 13:16 51°20.055 2°36.748 1.8 22 11.4 103550 80
2007-03-14 13:17 51°20.052 2°36.74 1.8 25 11.4 103560 79
2007-03-14 13:18 51°20.049 2°36.733 1.7 23 11.4 103550 78
2007-03-14 13:19 51°20.044 2°36.726 1.9 257 11.4 103560 79
2007-03-14 13:20 51°20.039 2°36.719 2.1 257 11.4 103550 78
2007-03-14 13:21 51°20.034 2°36.712 1.7 260 11.4 103550 78
2007-03-14 13:22 51°20.029 2°36.706 1.3 267 11.4 103550 79
2007-03-14 13:23 51°20.023 2°36.698 1.5 268 11.4 103550 79
2007-03-14 13:24 51°20.018 2°36.69 1.2 32 11.4 103550 79
2007-03-14 13:25 51°20.013 2°36.683 1.5 270 11.4 103550 79
2007-03-14 13:26 51°20.007 2°36.676 1.8 33 11.4 103550 79
2007-03-14 13:27 51°20.001 2°36.668 1.8 22 11.3 103550 79
2007-03-14 13:28 51°19.994 2°36.66 1.6 22 11.2 103550 78
2007-03-14 13:29 51°20.005 2°36.678 2.2 22 11.2 103550 79
2007-03-14 13:30 51°20.105 2°36.754 5 322 11.2 103550 79
2007-03-14 13:31 51°20.266 2°36.896 5.2 323 11 103540 79
2007-03-14 13:32 51°20.432 2°37.112 6.2 325 10.9 103540 81
2007-03-14 13:33 51°20.59 2°37.349 6 323 10.8 103550 81
2007-03-14 13:34 51°20.74 2°37.592 5.7 324 10.7 103550 81
2007-03-14 13:35 51°20.893 2°37.845 6 326 10.7 103540 81
2007-03-14 13:36 51°21.042 2°38.089 6.6 324 10.6 103540 81
2007-03-14 13:37 51°21.192 2°38.324 4.5 324 10.6 103540 82
2007-03-14 13:38 51°21.279 2°38.414 2.7 26 10.6 103550 82
2007-03-14 13:39 51°21.321 2°38.403 2.6 22 10.7 103550 82
2007-03-14 13:40 51°21.336 2°38.367 2.6 328 10.6 103550 82
2007-03-14 13:41 51°21.33 2°38.302 2.8 343 10.6 103550 81
2007-03-14 13:42 51°21.284 2°38.257 2.2 359 10.5 103550 82
2007-03-14 13:43 51°21.238 2°38.282 0.9 25 10.3 103550 83
2007-03-14 13:44 51°21.21 2°38.316 1 41 10.4 103550 84
2007-03-14 13:45 51°21.192 2°38.335 1.2 45 10.5 103550 84
2007-03-14 13:46 51°21.183 2°38.33 1.4 23 10.5 103550 84
2007-03-14 13:47 51°21.176 2°38.317 1.4 26 10.4 103550 84
2007-03-14 13:48 51°21.169 2°38.306 1.6 27 10.3 103550 84
2007-03-14 13:49 51°21.162 2°38.297 1.7 19 10.3 103550 83
2007-03-14 13:50 51°21.155 2°38.289 1.7 27 10.2 103550 84
2007-03-14 13:51 51°21.151 2°38.27 1.7 29 10.2 103540 84
2007-03-14 13:52 51°21.142 2°38.282 0.2 21 10.2 103550 84
2007-03-14 13:53 51°21.153 2°38.316 1.8 250 10.3 103540 85
2007-03-14 13:54 51°21.187 2°38.322 2 21 10.5 103540 85
2007-03-14 13:55 51°21.213 2°38.341 0.9 263 10.7 103540 85
2007-03-14 13:56 51°21.221 2°38.36 1.3 20 10.8 103540 84
2007-03-14 13:57 51°21.22 2°38.372 1.2 30 10.8 103540 82
2007-03-14 13:58 51°21.215 2°38.373 1 19 10.7 103540 81
2007-03-14 13:59 51°21.208 2°38.366 1.9 33 10.8 103540 81
2007-03-14 14:00 51°21.201 2°38.357 1.6 21 10.7 103540 80
2007-03-14 14:01 51°21.198 2°38.34 1.9 37 10.6 103540 81
2007-03-14 14:02 51°21.195 2°38.323 1.8 25 10.5 103540 81
2007-03-14 14:03 51°21.191 2°38.309 1.6 40 10.4 103540 81
2007-03-14 14:04 51°21.186 2°38.295 1.6 39 10.4 103540 82
2007-03-14 14:05 51°21.181 2°38.282 1.4 19 10.3 103540 83
2007-03-14 14:06 51°21.174 2°38.274 1.4 34 10.4 103540 83
2007-03-14 14:07 51°21.138 2°38.294 2.4 354 10.4 103540 83
2007-03-14 14:08 51°21.007 2°38.364 5.4 340 10.3 103530 83
2007-03-14 14:09 51°20.814 2°38.532 6.6 339 10.3 103530 84
2007-03-14 14:10 51°20.6 2°38.654 7 341 10.4 103520 83
2007-03-14 14:11 51°20.381 2°38.764 6.8 340 10.5 103520 82
2007-03-14 14:12 51°20.16 2°38.862 6.9 341 10.5 103520 82
2007-03-14 14:13 51°19.937 2°38.953 6.9 343 10.5 103520 82
2007-03-14 14:14 51°19.716 2°39.046 6.6 342 10.5 103520 82
2007-03-14 14:15 51°19.496 2°39.138 6.5 341 10.5 103520 83
2007-03-14 14:16 51°19.276 2°39.229 6.5 341 10.5 103520 82
2007-03-14 14:17 51°19.056 2°39.322 6.3 341 10.6 103520 83
2007-03-14 14:18 51°18.833 2°39.414 6.5 339 10.6 103520 83
2007-03-14 14:19 51°18.612 2°39.506 6.3 340 10.6 103520 84
2007-03-14 14:20 51°18.393 2°39.599 6.4 341 10.7 103520 84
2007-03-14 14:21 51°18.176 2°39.687 6.3 342 10.6 103520 84
2007-03-14 14:22 51°17.96 2°39.772 6.2 343 10.6 103520 83
2007-03-14 14:23 51°17.749 2°39.875 5.8 341 10.5 103520 84
2007-03-14 14:24 51°17.538 2°39.976 5.9 340 10.5 103520 84
2007-03-14 14:25 51°17.326 2°40.08 6 341 10.5 103520 83
2007-03-14 14:26 51°17.113 2°40.191 5.7 339 10.5 103520 84
2007-03-14 14:27 51°16.902 2°40.32 5.7 340 10.5 103510 84
2007-03-14 14:28 51°16.691 2°40.449 5.8 341 10.5 103510 84
2007-03-14 14:29 51°16.48 2°40.577 5.9 340 10.5 103510 84
2007-03-14 14:30 51°16.271 2°40.713 5.4 340 10.5 103510 84
2007-03-14 14:31 51°16.065 2°40.861 5.4 339 10.5 103520 84
2007-03-14 14:32 51°15.86 2°41.006 5.5 339 10.6 103510 84
2007-03-14 14:33 51°15.657 2°41.149 5 340 10.6 103510 83
2007-03-14 14:34 51°15.49 2°41.358 4.4 333 10.6 103520 83
2007-03-14 14:35 51°15.424 2°41.673 5.1 326 10.5 103520 83
2007-03-14 14:36 51°15.426 2°42.007 4.8 325 10.5 103510 84
2007-03-14 14:37 51°15.424 2°42.344 5.1 327 10.4 103520 84
2007-03-14 14:38 51°15.413 2°42.683 4.6 325 10.5 103510 85
2007-03-14 14:39 51°15.399 2°43.028 4.6 326 10.4 103510 85
2007-03-14 14:40 51°15.385 2°43.361 4.7 325 10.4 103510 86
2007-03-14 14:41 51°15.369 2°43.7 4.7 324 10.4 103510 86
2007-03-14 14:42 51°15.351 2°44.038 4.8 325 10.4 103510 86
2007-03-14 14:43 51°15.334 2°44.378 4.7 323 10.4 103510 86
2007-03-14 14:44 51°15.318 2°44.717 4.6 325 10.4 103510 86
2007-03-14 14:45 51°15.294 2°45.054 4.7 325 10.3 103500 86
2007-03-14 14:46 51°15.264 2°45.394 4.6 324 10.3 103510 86
2007-03-14 14:47 51°15.244 2°45.724 4.7 323 10.3 103510 86
2007-03-14 14:48 51°15.255 2°46.056 4.8 322 10.3 103510 86
2007-03-14 14:49 51°15.234 2°46.395 4.4 323 10.4 103510 87
2007-03-14 14:50 51°15.209 2°46.723 4.7 321 10.4 103510 87
2007-03-14 14:51 51°15.182 2°47.061 4.4 321 10.4 103510 87
2007-03-14 14:52 51°15.158 2°47.393 4.2 324 10.4 103510 87
2007-03-14 14:53 51°15.132 2°47.723 4.4 325 10.4 103510 87
2007-03-14 14:54 51°15.106 2°48.066 5.1 324 10.4 103500 87
2007-03-14 14:55 51°15.079 2°48.41 4.7 325 10.4 103500 87
2007-03-14 14:56 51°15.055 2°48.741 4.6 323 10.4 103500 87
2007-03-14 14:57 51°15.03 2°49.083 4.9 323 10.4 103500 87
2007-03-14 14:58 51°15.004 2°49.421 4.7 321 10.4 103510 87
2007-03-14 14:59 51°14.98 2°49.751 4.9 323 10.4 103500 87
2007-03-14 15:00 51°14.955 2°50.092 4.9 323 10.4 103500 87
2007-03-14 15:01 51°14.931 2°50.422 4.5 321 10.4 103500 87
2007-03-14 15:02 51°14.907 2°50.757 4.6 322 10.4 103500 87
2007-03-14 15:03 51°14.884 2°51.091 5 323 10.4 103500 87
2007-03-14 15:04 51°14.86 2°51.424 5.1 321 10.4 103500 88
2007-03-14 15:05 51°14.836 2°51.757 4.8 323 10.5 103500 88
2007-03-14 15:06 51°14.812 2°52.091 5.4 323 10.5 103500 88
2007-03-14 15:07 51°14.789 2°52.424 4.9 319 10.5 103500 88
2007-03-14 15:08 51°14.772 2°52.682 2.8 37 10.5 103500 88
2007-03-14 15:09 51°14.757 2°52.843 2.3 32 10.5 103500 88
2007-03-14 15:10 51°14.738 2°53.003 2.4 238 10.5 103500 88
2007-03-14 15:11 51°14.704 2°53.172 2.3 235 10.5 103500 87
2007-03-14 15:12 51°14.667 2°53.343 2.2 235 10.6 103500 87
2007-03-14 15:13 51°14.635 2°53.495 2 239 10.5 103500 87
2007-03-14 15:14 51°14.609 2°53.62 2.3 249 10.6 103500 86
2007-03-14 15:15 51°14.576 2°53.778 2.4 235 10.6 103500 86
2007-03-14 15:16 51°14.533 2°53.985 3 39 10.6 103500 85
2007-03-14 15:17 51°14.483 2°54.258 5 320 10.6 103500 84
2007-03-14 15:18 51°14.44 2°54.587 5.7 320 10.5 103490 84
2007-03-14 15:19 51°14.417 2°54.926 4.9 322 10.5 103500 84
2007-03-14 15:20 51°14.314 2°55.217 5 327 10.5 103500 85
2007-03-14 15:21 51°14.148 2°55.402 3.6 340 10.5 103500 85
2007-03-14 15:22 51°13.989 2°55.518 2.6 326 10.4 103500 84
2007-03-14 15:23 51°13.834 2°55.632 2.4 328 10.4 103500 84
2007-03-14 15:24 51°13.727 2°55.755 1 245 10.5 103490 84
2007-03-14 15:25 51°13.678 2°55.855 1.2 262 10.6 103500 84
2007-03-14 15:26 51°13.642 2°55.938 1.8 266 10.6 103500 83
2007-03-14 15:27 51°13.617 2°56.012 1.8 265 10.6 103490 82
2007-03-14 15:28 51°13.606 2°56.067 3 31 10.6 103490 82
2007-03-14 15:29 51°13.6 2°56.09 2.4 32 10.5 103490 80